Regional Weather Roundup
Issued by NWS Sioux Falls, SD

Home | Current Version | Previous Version | Graphics & Text | Print | Product List | Glossary Off
Versions: 1 2 3 4 5 6 7 8 9 10 11 12 13 14 15 16 17 18 19 20 21 22 23 24 25 26 27 28 29 30 31 32 33 34 35 36 37 38 39 40 41 42 43 44 45 46 47 48 49 50

000
ASUS43 KFSD 220910
RWRFSD

WEATHER ROUNDUP FOR SE SOUTH DAKOTA/SW MINNESOTA/NW IOWA
NATIONAL WEATHER SERVICE SIOUX FALLS SD
400 AM CDT TUE AUG 22 2017

NOTE: "FAIR" INDICATES FEW OR NO CLOUDS BELOW 12,000 FEET WITH NO
SIGNIFICANT WEATHER AND OR OBSTRUCTIONS TO VISIBILITY.


SDZ038>040-050-052>070-221000-
SOUTHEAST SOUTH DAKOTA

CITY           SKY/WX    TMP DP  RH WIND       PRES   REMARKS
BROOKINGS      CLEAR     53  50  89 NW3       30.09R
CHAMBERLAIN    CLEAR     58  53  85 NW5       30.14S
HURON          CLEAR     49  48  97 W6        30.11R
MADISON        FAIR      54  54 100 NW7       30.10R
MITCHELL       CLEAR     54  51  90 NW6       30.11R
SIOUX FALLS    CLEAR     58  55  90 N10       30.08R
WINNER         FAIR      57  52  83 W3        30.16S
YANKTON        CLEAR     60  56  86 NW12      30.10R
$$

MNZ071-072-080-081-089-090-097-098-221000-
SOUTHWEST MINNESOTA

CITY           SKY/WX    TMP DP  RH WIND       PRES   REMARKS
FAIRMONT       CLEAR     61  58  90 NW9       29.98S
JACKSON        CLEAR     59  54  82 NW10      30.02R
LUVERNE        CLEAR     57  50  77 N6        30.07R
MARSHALL       CLEAR     55  53  93 NW9       30.05R
MONTEVIDEO     CLEAR     54  54 100 N6        30.03R
PIPESTONE      CLEAR     57  52  82 N6        30.07R
REDWOOD FALLS  CLEAR     59  53  80 NW14      30.00R
TRACY          CLEAR     58  55  92 NW9       30.04S
WINDOM         CLEAR     59  54  82 NW10      30.02R
WORTHINGTON    CLEAR     58  54  86 NW12      30.05R
$$

IAZ001>003-012>014-020>022-031-032-NEZ013-014-SDZ071-221000-
NORTHWEST IOWA

CITY           SKY/WX    TMP DP  RH WIND       PRES   REMARKS
CHEROKEE       CLEAR     59  59 100 NW5       30.02S
DENISON        CLEAR     63  63 100 NW3       30.04R
ESTHERVILLE    CLEAR     59  58  96 NW9       29.99S
ORANGE CITY    CLEAR     63  59  88 N8        30.05R
SHELDON        PTCLDY    59  57  94 NW8       30.03R
SIOUX CITY     CLEAR     62  62 100 NW8       30.03S
SPENCER        CLEAR     59  57  93 NW10      30.01S
STORM LAKE     CLEAR     61  61 100 NW9       30.02R
$$

ABBREVIATIONS USED IN REMARKS
   TC - TEMPERATURE IN CELSIUS
  WCI - WIND CHILL INDEX
   HX - HEAT INDEX
  VSB - VISIBILITY





USA.gov is the U.S. government's official web portal to all federal, state and local government web resources and services.